Wind_Speed
48 42 40 39 39 41 41 40 41 42 40 36 32 30 29 26 24 22 19 18 16 16 16 15 15 17 19 21 22 23 24 24 24 24 24 23 22 21 20 20 19 17 16 16 17 17 16 16 17 17 17 16 16 16 16 16 16 15 15 16 16 14 13 12 12 13 13 14 14 15 15 15 14 15 14 14 14 14 14 14 15 16 16 17 18
50 46 43 43 42 42 41 42 43 42 40 37 32 32 32 28 25 23 20 19 18 19 17 14 15 17 20 22 23 23 24 24 25 25 24 23 23 22 21 21 19 17 17 17 17 17 16 16 17 17 18 18 18 17 17 17 17 16 15 16 17 15 13 13 14 15 15 15 16 16 16 16 15 15 15 14 14 14 14 15 16 16 16 17 18
54 50 46 45 45 45 44 44 43 42 40 37 34 35 36 30 26 25 22 20 22 23 19 16 19 20 22 24 24 24 24 25 26 26 25 24 24 23 22 21 20 18 17 18 17 17 17 17 17 18 19 19 19 18 18 18 18 17 16 17 17 16 14 14 15 16 16 16 17 17 17 17 16 15 15 15 14 14 15 16 16 16 16 17 18
57 53 49 47 47 47 46 46 44 43 43 40 36 36 37 34 29 28 26 25 25 27 22 20 21 22 25 27 27 26 25 26 26 26 25 24 24 24 22 21 20 19 18 18 18 17 17 18 18 19 20 20 20 20 19 19 19 18 17 18 18 17 16 16 17 17 17 18 18 18 18 17 15 15 15 15 15 15 16 16 17 17 17 18 18
59 56 52 49 49 49 48 47 46 46 44 41 38 37 38 37 35 32 31 30 30 31 27 23 23 25 28 30 29 28 27 26 26 26 26 25 25 24 22 21 21 21 20 19 18 18 17 18 19 19 20 20 20 21 20 20 20 20 19 19 19 18 17 17 18 18 19 19 18 18 17 17 16 15 15 15 16 16 17 17 17 18 19 19 20
62 58 54 51 50 50 49 48 48 49 47 43 40 38 37 38 38 36 34 34 34 33 28 25 25 27 29 31 30 28 28 28 27 26 26 25 25 23 21 21 22 22 22 20 19 18 18 18 19 19 19 20 20 21 21 21 21 21 20 20 20 19 19 19 19 19 19 19 18 18 18 17 16 15 15 15 16 17 17 17 18 19 20 20 21
64 61 58 55 53 52 51 49 48 48 47 44 41 38 36 36 36 35 35 35 35 33 29 26 27 29 30 30 29 28 29 29 28 26 26 25 24 23 21 21 23 23 23 22 21 19 19 19 19 19 19 19 20 21 21 22 22 22 21 20 20 21 20 20 20 20 20 20 19 19 19 18 17 16 16 16 17 17 18 18 18 19 21 21 22
65 63 61 60 56 54 52 51 49 47 45 44 43 39 36 34 35 35 36 36 35 33 30 28 29 30 29 28 29 29 30 30 28 26 25 24 24 23 21 22 23 23 23 23 22 20 19 18 18 19 20 20 20 21 21 21 22 22 21 20 21 23 22 21 21 21 20 20 20 20 19 19 18 17 17 17 17 18 18 19 19 20 21 22 23
65 64 63 62 60 56 54 53 50 45 43 44 44 41 37 35 35 36 36 36 36 35 32 30 30 29 27 28 28 29 30 30 28 25 24 24 24 23 22 22 23 23 23 23 21 20 19 18 19 19 20 20 20 20 21 22 22 22 22 21 23 24 24 22 21 21 21 20 20 20 20 20 19 18 17 18 18 18 19 19 20 20 22 23 24
66 66 65 64 62 57 55 55 51 46 45 44 45 45 42 38 36 37 37 38 39 37 32 29 29 28 27 27 27 28 29 29 26 24 23 24 24 23 22 23 23 23 23 21 20 19 19 19 20 20 19 19 20 20 21 22 24 25 25 24 26 26 25 23 21 21 21 21 21 21 20 21 20 19 18 19 19 19 19 20 21 21 22 24 25
68 67 66 65 63 60 58 58 53 50 48 48 49 48 45 41 38 38 38 39 40 35 29 28 28 28 28 27 26 27 28 27 25 23 23 24 24 23 22 23 23 22 22 20 19 19 19 19 21 21 19 19 20 20 21 21 23 26 27 27 29 28 24 21 21 21 21 21 21 21 21 22 21 20 20 20 20 20 20 21 21 22 23 24 26
69 68 68 67 65 63 63 62 58 54 52 51 51 49 45 43 41 40 39 39 38 32 27 28 29 28 28 26 26 27 28 26 24 23 24 24 24 22 22 22 22 22 21 19 19 20 19 19 21 21 20 20 19 19 21 21 21 24 26 27 28 27 22 19 20 20 20 20 21 22 22 22 22 21 21 21 21 21 21 22 22 23 24 25 27
71 69 68 68 67 66 65 64 62 58 55 52 52 49 44 43 42 40 39 40 37 31 27 29 30 29 28 26 26 27 26 25 23 23 23 23 23 22 21 21 21 21 20 18 19 20 19 20 21 21 20 19 18 19 20 21 21 22 25 27 27 25 21 18 19 19 19 20 21 22 23 23 23 22 22 22 22 23 23 23 23 23 24 26 27
73 71 69 68 68 67 66 65 63 60 56 53 54 52 47 44 43 41 41 40 35 29 28 30 31 30 29 27 27 27 25 23 22 22 23 23 22 21 21 20 20 20 20 19 19 19 20 20 20 19 19 18 18 20 20 21 22 22 24 25 23 22 20 19 19 19 20 21 21 22 24 24 24 24 23 23 23 24 24 24 24 25 25 27 28
74 73 70 69 69 69 68 66 63 60 56 54 54 54 50 47 45 44 43 39 32 27 29 31 31 30 29 28 27 26 24 23 22 22 22 22 22 21 20 20 20 19 19 20 20 19 20 20 19 19 19 19 20 21 21 22 23 22 21 20 19 20 21 20 19 20 20 21 22 23 24 25 25 25 24 24 25 25 26 26 26 26 27 28 29
76 74 72 70 70 69 68 67 64 61 58 56 55 56 54 50 47 45 42 36 30 28 29 31 32 31 30 29 27 24 23 22 22 22 22 23 22 21 20 20 19 18 19 21 21 20 20 20 20 20 20 20 20 21 21 22 22 21 20 19 18 19 20 20 20 20 20 21 22 23 24 25 26 25 25 25 26 27 27 27 27 28 29 30 31
77 76 73 70 69 68 67 66 64 62 60 59 58 57 54 50 48 45 39 33 29 28 28 31 33 32 31 31 27 24 23 22 22 22 23 23 21 20 20 19 18 18 19 21 21 21 21 20 20 20 20 20 20 21 21 20 21 20 18 18 18 19 20 21 21 20 20 21 22 23 24 26 26 26 26 27 28 29 29 29 29 30 31 32 33
77 76 74 71 68 67 66 65 64 62 60 59 57 55 52 50 47 42 36 31 29 28 30 34 34 33 33 32 27 24 23 23 22 23 23 22 20 20 20 19 19 19 20 21 21 22 22 21 21 20 20 19 19 20 20 19 20 20 18 18 19 20 20 20 20 20 20 21 22 23 24 25 26 26 26 28 29 30 30 30 31 31 33 34 36
78 77 75 72 69 66 66 64 63 62 60 58 56 53 51 49 44 38 33 32 32 32 33 35 35 35 35 33 29 25 24 23 23 23 22 21 21 21 20 20 19 19 20 21 22 22 22 22 22 20 20 19 19 20 20 19 19 19 20 20 20 20 20 20 20 20 20 21 22 23 24 25 25 26 27 28 30 31 31 32 32 33 34 36 37
78 76 74 72 70 67 65 63 61 60 59 57 55 52 50 46 40 35 33 34 35 34 34 35 35 37 36 34 30 26 25 24 23 23 22 21 21 22 20 20 19 19 20 21 22 22 23 23 22 21 20 19 19 19 19 19 19 20 21 21 21 22 21 21 21 21 21 22 22 23 24 25 25 26 27 29 30 31 32 33 33 35 36 37 39
77 76 73 71 69 66 64 61 58 57 56 55 52 49 45 41 37 35 35 37 36 35 35 36 37 38 37 34 31 27 26 25 24 23 22 21 22 22 20 20 20 20 21 21 22 23 24 23 22 22 21 19 19 19 19 20 21 22 23 23 23 23 23 22 22 23 23 23 23 23 23 24 25 26 27 29 30 32 33 33 35 36 37 39 40
75 75 72 70 68 65 63 60 58 57 56 54 51 46 42 39 36 36 38 39 36 36 37 38 38 38 36 34 31 28 26 26 24 23 22 22 23 22 21 20 21 22 22 22 23 24 24 24 23 22 21 20 19 19 20 21 22 23 24 24 24 24 23 22 23 23 24 23 23 22 23 23 25 26 28 29 31 32 33 34 36 37 39 40 42
73 72 71 68 66 63 62 61 59 57 56 53 47 43 40 38 37 39 41 40 37 37 39 39 38 37 36 34 31 28 26 25 24 23 23 23 24 23 21 21 22 23 24 23 24 24 25 24 23 23 22 21 19 19 20 21 23 24 24 25 24 23 22 22 23 23 23 23 23 22 23 24 25 27 28 29 31 32 34 35 36 38 39 41 42
70 69 69 67 64 62 60 60 58 58 55 50 44 40 39 39 40 42 42 40 38 39 40 39 38 37 36 34 31 28 26 25 24 24 24 24 25 24 22 22 22 23 24 24 24 25 25 25 24 23 22 21 20 19 20 22 23 24 24 23 23 22 21 22 23 23 23 23 23 23 23 24 26 27 28 29 31 33 34 35 37 39 40 41 43
67 66 66 65 62 60 59 58 57 55 51 46 42 42 42 42 43 43 42 40 39 40 40 38 38 37 35 33 30 28 25 25 25 25 25 26 26 24 22 22 23 23 24 25 25 26 26 26 25 24 23 21 20 20 20 22 23 23 22 22 21 21 21 21 22 22 23 23 23 23 24 25 27 28 29 31 32 34 35 36 38 39 40 41 42
63 63 63 61 59 58 57 56 54 51 48 45 44 44 45 45 45 44 42 41 41 41 40 38 38 37 34 32 30 27 25 26 27 26 26 27 27 25 23 23 23 23 24 25 26 26 26 26 25 24 23 22 21 21 21 22 22 22 21 21 20 20 20 21 21 22 23 24 24 25 26 27 28 29 30 32 34 35 37 38 39 39 39 40 42
59 58 58 58 57 56 56 55 53 50 48 47 46 47 47 47 47 45 43 42 42 42 40 38 38 36 33 31 30 27 26 28 28 27 28 29 28 25 23 23 23 24 25 26 26 27 27 27 26 25 24 23 22 22 21 21 21 21 20 20 20 20 20 21 22 23 24 25 26 26 27 28 29 30 32 33 35 36 37 38 38 39 39 41 42
55 54 54 55 55 55 54 53 52 50 49 48 48 48 48 49 48 46 44 43 43 42 39 38 38 36 33 31 30 28 28 30 29 29 29 30 28 26 23 23 24 24 25 26 27 27 27 27 26 26 25 24 23 22 21 20 20 20 20 20 20 20 21 22 23 24 25 26 27 27 28 29 30 31 33 34 35 36 37 39 40 40 40 41 42
50 49 50 51 51 51 50 49 48 49 49 49 49 49 49 49 47 45 45 45 44 42 40 39 38 35 33 32 31 30 30 31 30 30 31 30 29 26 24 24 24 25 26 27 27 27 27 27 27 27 26 25 24 22 21 20 19 19 20 20 20 21 21 23 24 25 26 27 27 28 29 29 31 32 33 34 35 36 38 40 39 38 39 41 42
48 48 48 48 48 47 47 47 47 49 49 49 49 48 47 46 45 45 46 46 44 42 40 39 38 35 33 33 32 31 32 32 31 31 31 31 29 26 25 25 25 26 26 26 27 28 28 27 27 27 27 26 24 22 20 19 19 19 20 20 20 21 22 23 24 25 26 27 27 28 29 30 31 32 33 34 36 37 37 37 37 38 40 42 43
46 47 48 47 46 46 47 49 50 49 49 48 47 46 45 44 44 46 47 46 44 43 41 40 38 36 34 34 33 33 33 32 32 32 32 31 29 27 26 25 25 26 26 26 27 28 28 27 27 27 27 26 24 22 20 19 19 20 20 20 20 21 22 23 24 25 26 27 28 29 31 31 32 33 34 35 36 36 36 37 38 41 43 44 45
43 46 47 45 45 46 48 49 49 48 48 47 46 46 46 46 46 47 48 47 45 44 42 40 38 37 36 35 34 34 34 33 33 32 32 31 29 27 26 26 25 26 26 27 28 28 28 27 27 27 27 26 24 22 20 20 20 20 20 20 20 21 22 24 25 26 27 28 30 31 33 33 33 33 35 35 36 36 38 39 41 43 45 46 45
39 45 47 45 44 45 45 45 45 46 46 45 46 46 46 46 47 49 50 48 46 44 43 41 39 38 37 36 35 35 35 34 33 33 33 31 29 28 27 26 26 26 27 28 28 28 28 28 28 28 27 26 24 22 21 21 22 22 22 21 22 23 24 25 27 27 28 30 31 33 34 34 34 34 35 35 36 38 40 42 44 46 46 46 44
39 43 44 43 43 42 43 43 44 44 44 43 44 45 45 47 49 51 51 50 47 44 43 42 40 39 39 37 36 36 36 35 34 34 33 31 29 28 28 27 26 27 27 28 29 28 28 28 28 28 27 25 23 22 22 22 22 23 23 23 24 26 26 27 28 29 30 31 32 33 34 35 35 35 35 36 38 40 43 44 46 46 46 44 44
39 39 40 40 42 43 44 44 43 43 44 45 46 47 48 48 49 50 50 49 47 44 43 42 41 40 39 38 36 36 36 36 35 35 33 31 30 29 28 27 27 27 28 29 29 28 28 29 28 28 27 25 24 23 23 23 24 25 25 26 27 28 28 29 30 31 31 32 33 34 35 36 36 36 36 37 40 43 45 46 47 46 44 43 44
37 39 40 42 44 45 44 42 41 42 44 47 49 49 49 48 47 47 47 46 45 44 43 43 42 41 40 38 37 37 37 36 36 35 33 31 30 29 29 29 29 28 29 29 29 28 28 29 28 27 26 25 24 24 24 25 26 27 27 28 29 29 30 31 31 32 32 33 33 34 36 37 37 37 38 40 42 45 46 47 46 44 42 43 45
36 40 42 44 45 44 42 41 40 41 45 49 50 50 48 47 46 46 46 46 46 45 44 44 43 41 40 38 37 37 37 37 36 35 33 31 31 31 31 31 29 29 30 30 30 29 29 28 28 27 26 25 25 25 26 27 28 29 29 30 30 30 31 31 32 32 33 33 34 35 36 37 38 39 40 42 44 46 47 48 46 43 43 45 45
37 40 40 41 42 42 42 43 43 45 47 48 48 47 47 46 46 47 47 47 46 45 45 44 43 41 40 38 37 38 38 37 37 35 33 33 33 33 33 32 31 30 30 30 29 28 28 27 27 27 26 26 26 26 27 29 31 31 31 31 31 31 32 33 33 33 33 34 35 36 37 38 40 41 43 45 47 48 48 48 46 43 43 43 42
37 38 37 38 40 41 43 44 46 46 45 43 44 45 46 46 46 46 46 45 44 44 44 43 42 41 40 39 38 39 39 38 37 35 34 34 35 35 34 33 32 30 29 29 28 27 26 27 27 27 27 27 28 28 30 31 32 32 32 32 32 33 33 33 32 32 32 34 35 36 38 40 42 43 45 47 49 49 49 47 44 42 41 42 42
36 35 35 36 38 41 43 45 46 44 42 42 43 43 42 42 43 44 43 42 42 42 43 42 42 42 41 40 39 40 40 39 38 37 36 36 37 36 34 33 32 30 29 28 27 26 26 27 28 28 29 29 29 29 31 33 34 33 33 32 32 32 31 31 31 31 32 34 36 38 40 42 44 46 48 49 50 49 47 45 42 41 41 42 43
36 35 35 36 38 40 43 45 45 42 40 40 40 39 38 39 41 41 39 38 40 42 43 44 43 42 41 40 40 41 41 41 40 38 38 38 37 36 34 33 31 29 27 26 27 27 28 29 30 30 31 31 30 31 33 34 33 33 32 31 31 31 30 30 31 32 33 36 38 40 42 44 46 48 49 49 48 46 44 43 42 41 41 41 42
36 36 37 39 40 42 44 45 45 43 41 40 39 39 39 40 40 39 37 38 41 44 45 45 44 43 42 41 42 43 43 43 42 40 39 38 37 35 34 33 31 27 26 28 29 29 29 30 31 32 32 32 32 33 33 32 32 32 31 29 29 30 30 31 32 34 36 38 41 43 45 46 47 48 47 46 45 43 42 41 41 40 40 40 40
37 38 38 40 42 43 43 45 46 45 43 42 43 43 43 43 42 41 40 42 44 45 46 46 45 45 44 43 43 45 45 44 43 40 38 38 36 35 34 32 29 27 27 29 30 29 29 29 29 30 31 32 32 33 32 31 31 32 31 30 29 29 30 31 33 36 38 41 43 44 46 46 46 45 44 43 42 42 41 40 40 40 39 39 39
39 39 39 40 42 44 45 46 48 48 46 45 46 47 48 47 46 45 45 45 45 45 46 48 48 47 46 45 46 47 46 45 42 39 39 38 37 35 33 30 28 28 30 30 29 29 30 29 28 28 28 28 30 31 31 30 31 31 30 30 30 30 31 33 36 38 41 43 44 44 44 44 43 43 42 41 41 40 40 40 40 39 39 39 38
39 39 38 37 38 42 45 47 48 48 48 48 49 49 49 47 45 45 45 44 44 45 45 46 49 49 47 46 47 47 46 44 42 40 40 39 36 34 33 31 30 32 32 31 29 28 29 30 30 30 29 29 29 30 29 29 30 30 30 30 31 32 35 37 39 40 41 42 42 42 42 41 41 41 41 40 40 40 40 40 40 39 39 38 37
40 40 40 38 36 37 42 46 48 49 50 50 51 50 48 46 45 45 46 46 46 45 43 44 46 48 48 48 47 47 45 43 42 41 41 38 35 33 32 31 33 34 32 30 28 27 27 29 31 31 31 30 30 29 29 30 30 31 31 32 33 35 37 38 39 40 40 39 39 39 39 40 40 40 40 40 40 40 40 40 39 39 38 37 37
43 42 41 40 39 39 41 45 47 49 50 51 51 50 48 46 44 43 42 43 45 43 42 41 43 45 47 47 46 46 45 43 43 42 40 37 33 32 31 32 34 35 33 31 29 28 28 29 30 29 29 29 28 29 30 31 31 32 33 35 37 37 38 38 38 38 37 36 36 37 38 39 40 40 40 41 40 40 39 38 38 37 37 37 37
42 42 41 40 41 42 43 46 49 51 50 49 49 48 46 43 42 42 39 37 39 41 40 39 39 41 44 46 46 46 45 43 43 42 39 35 32 31 32 32 33 33 32 28 27 27 28 28 29 29 29 28 28 29 31 32 33 34 36 37 38 38 38 38 37 36 35 35 35 37 38 39 39 40 40 40 39 38 38 37 37 37 37 37 37
36 38 39 40 40 41 43 46 50 52 51 48 46 46 44 41 41 44 42 38 37 40 40 40 40 40 43 46 46 45 44 43 42 41 37 33 31 31 31 31 30 30 28 25 24 25 27 28 28 29 29 28 29 31 32 34 35 36 38 38 38 38 38 37 36 34 34 35 36 37 38 39 39 39 38 38 38 37 37 37 36 36 36 37 37
32 35 37 39 39 40 42 46 49 49 47 44 43 44 44 42 41 43 44 41 39 39 40 42 42 42 43 45 45 44 44 43 41 39 34 31 30 31 30 30 29 29 27 25 25 27 28 28 27 28 28 29 31 33 34 35 36 37 38 38 38 38 37 35 34 34 35 36 37 38 38 38 38 38 37 37 37 36 36 36 36 36 37 37 37
26 27 29 31 33 34 35 39 43 44 42 41 41 42 43 42 41 40 41 41 39 38 39 42 43 42 43 45 44 43 43 42 40 37 34 32 31 31 30 29 27 26 26 26 27 28 27 27 27 28 30 32 33 35 36 36 37 38 38 38 38 37 35 34 34 35 35 37 38 38 38 38 37 37 37 36 36 36 35 36 36 37 37 37 37
Wind_Direction
221 218 219 217 213 212 211 210 212 216 216 212 213 216 209 207 211 214 216 217 222 230 235 246 260 269 274 278 282 288 294 297 299 296 295 298 295 295 299 298 293 286 282 281 280 279 274 269 268 269 266 264 267 271 273 276 281 282 277 271 270 269 267 264 261 259 258 258 260 263 264 263 264 267 271 276 278 281 286 291 293 296 301 307 313
220 217 217 218 214 212 212 211 212 212 211 210 212 211 206 205 207 207 211 217 223 227 231 250 271 277 281 283 284 287 291 295 296 294 292 294 295 296 300 298 291 283 279 279 280 280 275 271 270 270 268 267 268 271 273 275 280 282 275 269 269 268 265 264 264 262 260 260 262 264 264 261 260 264 270 274 276 281 286 289 291 296 300 305 312
220 216 216 218 214 209 210 211 209 206 205 208 210 209 207 207 206 207 213 220 226 226 234 266 280 279 284 287 285 284 286 290 292 292 291 291 293 296 298 295 287 279 276 278 279 278 274 272 271 271 271 270 269 271 272 274 279 281 274 268 268 266 264 266 268 265 260 258 259 260 259 257 258 263 269 274 278 282 286 289 292 296 300 305 310
220 217 214 216 214 208 207 208 206 204 204 205 208 209 210 211 210 212 219 225 230 230 241 272 280 277 283 286 283 281 282 286 287 288 289 289 291 294 296 293 283 274 272 274 277 276 272 271 272 272 272 271 270 270 271 273 277 278 272 267 267 268 265 265 266 264 259 256 256 256 255 255 258 264 270 275 280 285 289 291 294 298 302 306 309
221 217 214 216 215 209 206 207 207 205 204 205 207 209 212 215 216 219 223 227 233 236 245 268 277 276 280 281 280 279 280 282 283 285 286 287 289 292 294 288 276 270 269 271 274 274 271 270 271 272 272 270 269 269 270 271 273 274 272 269 269 270 268 265 264 262 259 256 255 255 255 257 261 266 272 278 283 288 292 294 297 300 303 306 308
221 217 215 216 214 211 207 207 208 205 203 206 208 209 211 215 218 221 224 228 234 238 248 266 274 273 275 276 276 277 278 279 280 282 283 285 288 289 289 281 271 268 269 271 273 272 271 269 269 272 271 269 268 268 269 269 269 270 270 269 270 269 267 265 263 262 261 259 256 256 257 260 264 269 275 280 286 290 293 295 298 301 304 306 308
220 218 215 215 215 216 212 208 210 209 207 208 207 207 210 213 216 219 222 228 234 239 251 266 272 272 272 272 273 275 276 276 278 279 280 283 285 285 282 274 268 268 270 273 274 274 271 268 268 269 269 269 267 266 268 268 269 271 271 271 270 267 265 264 262 261 263 262 259 258 259 262 266 272 277 281 286 290 292 295 298 302 305 307 308
219 219 216 215 216 217 216 212 212 213 213 212 209 209 212 213 216 218 222 230 236 242 253 265 270 270 269 269 272 274 274 274 276 277 278 279 281 281 278 271 267 269 272 276 277 276 270 265 266 267 269 270 267 265 267 269 271 274 274 272 270 268 265 263 262 263 265 264 262 260 261 264 268 273 278 282 286 291 293 295 299 303 305 307 308
217 219 217 216 216 216 217 215 213 214 217 217 215 215 217 219 220 221 225 233 238 244 253 264 268 266 266 269 272 272 272 272 272 273 274 275 277 277 274 268 267 270 274 277 278 275 269 265 267 269 269 270 269 266 266 270 273 275 275 269 266 267 265 263 263 265 266 265 262 261 261 264 269 273 278 282 287 291 294 296 299 303 305 307 309
216 217 217 216 216 215 216 216 215 218 221 223 223 222 224 226 226 226 230 236 240 246 255 263 263 263 265 269 270 269 268 268 269 269 270 272 273 273 270 266 268 273 276 276 274 271 268 267 269 271 270 269 270 268 265 268 271 273 275 270 263 262 262 263 265 265 264 263 261 261 262 264 269 274 278 283 287 290 294 297 300 304 306 308 309
214 215 216 216 215 215 216 216 217 221 222 224 226 225 227 230 230 231 234 238 243 250 257 260 258 259 262 265 267 266 265 266 267 267 268 270 270 269 267 265 268 273 274 272 269 267 267 266 267 269 270 269 271 271 269 269 267 269 273 273 267 260 257 262 266 264 262 261 260 259 261 265 269 274 278 282 286 290 293 297 301 305 308 309 310
213 214 215 216 215 214 216 216 218 221 221 223 225 225 227 231 233 236 239 244 250 254 256 255 253 254 257 260 263 264 265 266 265 265 266 267 267 266 264 264 268 271 271 269 266 263 263 264 266 270 272 271 270 270 270 269 267 268 270 273 270 263 259 263 265 265 264 262 261 260 262 266 270 275 278 282 286 290 293 297 301 306 308 309 310
212 213 213 214 215 214 216 218 219 220 221 223 225 226 229 234 237 240 244 249 254 255 253 249 247 249 253 256 260 263 265 266 264 263 263 263 262 262 260 262 267 268 268 266 264 262 263 264 267 270 271 272 270 270 271 272 271 270 268 270 269 262 262 266 265 266 266 264 264 264 265 268 271 275 278 282 286 289 293 297 301 305 307 309 310
211 212 212 213 214 214 216 219 220 220 222 223 225 228 232 236 239 242 245 250 254 254 249 245 244 246 249 253 258 262 264 264 262 259 258 258 258 257 258 261 264 265 264 262 261 264 265 266 267 268 269 271 271 272 274 274 274 272 270 270 266 260 267 273 268 266 267 265 264 265 267 269 272 276 279 283 286 289 292 296 300 304 306 308 310
210 211 212 212 213 213 216 219 221 221 222 224 226 228 232 237 240 243 246 250 253 251 247 244 243 243 246 251 256 259 261 260 257 255 254 255 254 254 256 259 261 263 263 259 259 264 266 266 267 268 269 271 273 274 274 273 273 272 270 269 264 263 274 279 272 268 268 268 266 265 267 269 272 276 279 283 286 288 291 294 298 302 304 306 308
210 211 212 211 211 213 215 219 222 222 222 223 226 228 233 238 240 244 247 249 249 249 247 242 240 241 244 248 253 257 258 256 254 252 251 251 251 252 255 259 261 263 261 258 262 267 267 266 267 269 270 272 274 274 274 274 274 272 268 266 266 268 275 279 274 269 268 269 269 267 267 269 272 276 279 283 285 287 289 293 297 300 302 303 304
211 210 211 211 211 212 215 218 221 223 222 223 226 229 233 237 240 243 246 245 246 249 246 239 237 239 242 245 250 254 255 253 251 250 249 249 250 252 256 259 260 259 258 259 264 267 267 267 268 270 272 273 274 274 275 273 272 271 268 266 269 270 272 275 273 268 266 268 268 266 267 269 272 276 280 283 285 287 289 292 295 297 299 301 302
213 211 210 211 211 212 214 217 219 222 223 224 226 230 233 236 239 241 241 242 245 246 241 236 235 237 239 243 248 250 250 250 249 248 248 248 249 252 254 256 257 257 258 261 264 266 267 268 269 271 273 273 272 273 274 270 267 269 269 268 270 272 272 273 273 269 266 267 266 265 266 269 272 276 280 284 286 287 289 291 293 296 297 299 301
213 212 210 210 211 211 213 215 217 219 222 223 226 229 232 234 236 236 236 238 241 240 236 233 233 235 238 242 245 247 247 248 248 248 247 246 248 251 253 256 258 260 261 263 265 267 268 270 272 273 273 273 272 272 273 269 264 266 269 269 271 273 273 272 273 270 267 266 266 265 266 269 272 277 281 284 286 288 290 291 293 295 297 298 300
213 213 211 210 210 211 212 214 216 218 220 222 225 227 229 230 230 230 232 236 237 235 233 232 232 234 237 240 243 246 246 246 247 247 245 244 247 251 254 257 259 261 262 262 265 267 269 271 273 273 274 275 274 273 270 267 265 265 267 268 269 270 270 270 271 271 269 267 266 265 267 269 273 278 282 285 287 290 292 293 295 296 297 299 300
213 213 212 211 211 211 212 213 214 216 219 221 223 225 226 226 226 227 231 234 233 231 231 231 231 233 235 238 241 243 245 245 245 245 242 242 246 251 254 256 259 260 260 262 265 268 269 271 272 274 275 275 275 273 270 267 266 265 265 266 267 267 267 267 270 271 270 268 265 265 267 270 275 279 283 286 289 292 294 295 297 297 298 299 300
212 213 213 212 212 212 211 213 213 215 218 220 220 222 222 222 224 226 230 232 229 228 229 231 231 233 234 236 238 241 243 245 244 243 241 241 246 250 252 255 258 259 260 263 266 268 269 271 272 274 276 275 274 274 273 272 270 268 267 267 266 266 265 266 268 269 269 267 264 264 267 272 276 280 284 288 291 293 295 296 297 297 298 299 300
211 212 212 212 212 212 212 212 214 216 218 219 219 219 220 221 223 226 228 228 225 226 228 230 231 232 233 234 236 238 241 243 242 241 239 240 245 248 250 254 257 260 262 263 266 268 269 271 272 274 276 277 276 276 277 277 276 273 271 268 266 265 265 266 267 268 268 266 264 265 269 273 277 281 286 289 292 294 295 296 297 297 298 299 301
210 211 212 212 212 212 212 213 215 217 219 219 217 218 219 221 222 224 225 223 221 224 228 229 230 232 232 233 234 236 239 240 240 239 238 240 244 246 249 253 256 260 262 263 266 268 269 271 272 274 276 278 278 278 280 280 278 275 272 269 268 267 266 267 268 268 268 267 267 269 272 276 279 283 287 290 292 293 295 296 297 297 299 302 303
211 210 211 212 211 212 213 214 215 218 220 218 217 217 219 220 220 221 222 219 220 224 226 227 229 231 231 231 232 234 235 236 237 237 237 239 243 245 248 252 255 258 261 263 266 268 269 270 272 274 276 277 279 281 282 281 278 275 272 270 268 267 267 268 269 270 269 270 271 274 276 279 282 286 289 291 292 294 295 296 297 299 302 304 306
212 211 210 210 211 212 213 214 215 216 217 216 216 217 219 219 219 220 220 218 219 224 225 226 229 231 230 230 231 232 232 234 236 236 236 239 242 244 247 251 254 257 260 263 265 267 268 270 272 273 274 277 279 281 282 282 279 275 271 269 269 269 270 271 272 272 272 273 274 277 280 283 287 290 292 293 295 296 296 297 298 300 303 305 307
212 212 211 209 209 211 212 213 213 213 214 214 215 217 218 219 220 220 218 217 219 223 224 225 228 230 229 228 228 229 228 232 234 234 235 239 241 244 246 250 254 257 260 262 264 266 267 269 271 272 273 276 279 281 282 281 279 276 273 271 271 272 274 275 276 276 276 277 279 282 285 288 291 293 294 296 296 297 297 297 298 300 303 305 308
211 210 210 208 208 209 210 211 212 212 212 213 215 217 218 219 220 219 217 216 219 221 222 223 227 228 227 225 225 225 226 230 232 232 234 238 240 243 246 249 253 256 258 261 264 265 267 268 269 271 272 275 278 280 280 279 278 277 274 273 274 275 277 278 279 279 280 282 284 286 289 291 293 294 295 296 297 298 299 298 298 301 304 306 308
209 206 207 206 206 208 210 211 212 212 213 214 215 216 218 219 219 216 214 216 218 220 220 222 225 226 226 224 223 223 226 229 230 231 234 237 240 242 245 249 252 255 257 261 264 265 266 266 268 270 272 275 277 279 279 278 277 276 275 275 276 278 281 281 282 283 284 286 288 289 290 291 293 294 295 297 298 299 301 302 303 305 306 307 308
208 202 202 203 202 204 206 206 208 211 213 214 214 215 217 218 217 214 213 215 217 218 219 221 224 225 225 224 222 222 226 228 229 231 234 237 239 242 245 248 251 254 257 261 263 264 265 266 267 269 271 275 277 277 277 276 275 274 275 277 279 282 284 284 285 286 287 289 290 291 291 292 293 295 296 297 298 299 303 307 309 309 308 308 309
209 201 199 199 198 199 200 201 204 208 211 213 212 213 216 216 214 212 212 214 216 217 218 220 222 224 226 224 222 222 225 227 229 231 233 236 238 241 244 248 251 254 257 261 262 263 264 265 266 268 271 274 276 275 274 274 274 274 276 279 283 285 286 287 288 289 290 292 293 294 294 294 295 296 297 297 299 301 304 307 308 308 308 308 308
209 200 198 197 197 197 197 199 203 207 210 212 211 213 215 214 212 211 212 214 216 217 218 220 222 224 226 225 222 222 224 226 228 230 233 235 238 240 244 248 250 253 256 259 261 263 264 265 266 268 270 273 274 274 274 274 275 277 280 283 286 287 289 290 291 292 293 294 296 297 297 296 297 298 298 299 300 302 305 307 308 309 309 309 308
208 199 197 197 197 197 199 201 204 206 207 208 210 211 212 211 209 210 212 215 216 216 218 220 221 224 226 225 222 221 223 224 227 230 233 235 237 241 245 247 249 251 255 258 261 263 264 265 266 267 270 273 275 274 275 276 278 281 284 287 288 289 290 292 293 294 295 296 297 298 298 298 298 298 298 299 301 302 305 307 309 310 310 309 308
206 198 195 196 197 199 200 200 200 200 200 202 205 207 207 207 208 210 213 215 216 216 218 220 221 224 226 225 222 220 222 224 226 229 232 235 237 241 244 247 249 251 254 258 260 262 264 265 266 268 271 273 274 275 277 279 281 283 286 288 289 290 292 293 295 296 297 297 298 298 298 297 297 297 298 299 301 303 306 308 310 310 310 308 307
203 198 197 197 197 197 196 193 194 196 198 201 204 205 206 207 209 211 213 214 214 215 217 220 222 224 226 224 221 220 221 223 225 229 232 234 237 241 244 247 249 251 253 256 260 262 264 266 267 269 271 272 274 276 278 280 282 284 286 288 289 291 293 294 295 296 297 297 298 298 296 295 295 296 297 299 301 303 306 308 309 309 308 307 307
202 199 197 194 193 192 190 189 192 197 201 204 206 208 209 209 211 213 213 213 213 215 217 219 222 224 225 223 220 220 221 223 225 228 231 234 237 240 244 246 248 251 253 257 260 262 263 265 267 269 270 272 274 275 277 280 282 284 286 288 290 292 293 294 295 296 297 297 297 295 294 294 294 295 297 299 301 303 305 307 308 307 306 305 306
198 194 191 190 189 189 189 192 197 202 206 208 209 211 211 210 211 213 213 213 213 214 216 218 220 223 224 222 220 220 221 223 226 228 230 233 237 239 243 246 248 251 254 257 259 260 262 264 266 268 269 270 272 275 277 279 281 283 285 287 289 291 292 292 293 295 297 297 295 294 293 293 294 295 297 298 300 302 304 305 306 305 304 305 305
194 192 190 190 190 191 194 198 203 207 210 211 211 213 212 211 211 211 212 212 213 214 215 217 220 222 222 220 219 220 221 223 226 228 229 232 235 239 242 246 248 250 253 256 258 260 262 264 266 267 268 269 271 274 276 278 280 283 285 287 290 291 291 293 295 296 296 295 293 293 294 294 294 295 296 298 300 302 304 304 305 304 303 304 305
194 195 194 192 191 194 199 203 206 208 209 209 209 211 211 209 208 209 210 211 213 214 216 218 220 221 220 219 218 219 221 223 225 226 228 231 235 237 241 245 248 251 253 255 257 259 261 263 265 266 267 268 270 274 276 278 280 282 285 288 290 291 292 294 297 297 295 294 293 294 294 293 294 296 298 300 302 303 304 304 304 303 302 303 305
194 196 196 195 197 200 204 208 209 208 206 204 205 207 208 207 206 207 208 209 212 214 215 217 219 220 219 218 218 220 222 223 225 225 227 230 234 237 241 245 249 251 252 254 256 259 261 262 263 264 265 267 271 275 278 280 282 284 287 289 290 291 294 297 297 296 294 293 293 293 294 294 296 298 299 301 302 302 303 304 303 301 302 303 305
196 198 199 202 205 207 209 211 210 208 206 205 205 207 208 207 207 208 208 208 211 213 214 216 217 218 217 217 218 220 222 223 224 224 226 230 233 237 241 245 249 251 252 254 255 256 258 259 261 262 265 267 271 277 281 283 285 287 289 290 290 292 296 297 296 295 294 294 294 294 295 296 297 298 299 300 301 301 302 302 301 301 303 304 305
200 202 203 205 208 211 213 213 212 209 208 209 209 209 211 211 211 211 210 210 212 212 213 215 216 216 216 216 218 220 221 223 223 224 226 230 234 237 242 246 250 250 250 252 255 256 256 258 260 262 264 267 271 278 282 285 286 288 290 292 292 293 296 297 296 296 296 296 296 296 297 297 297 298 299 300 301 301 301 301 301 303 305 305 305
206 209 210 210 211 214 215 214 213 212 212 212 212 212 214 214 214 212 212 212 214 213 212 213 214 215 215 216 218 220 222 223 224 225 227 231 234 237 242 247 248 247 248 254 259 262 262 262 262 262 264 268 274 279 282 283 284 286 289 291 292 293 295 296 296 297 297 297 298 298 298 299 299 300 301 301 301 301 301 302 303 305 306 306 306
210 212 214 215 215 216 217 215 213 214 216 217 216 215 216 216 215 214 213 214 216 216 214 213 213 214 214 215 217 220 222 224 225 225 226 231 234 237 241 244 243 242 248 254 261 265 265 262 260 262 266 273 277 280 282 283 283 286 289 292 294 296 297 297 297 298 298 299 300 300 300 301 301 301 301 300 300 300 301 303 304 305 305 306 307
212 213 214 216 217 217 216 214 214 216 219 221 220 219 219 218 217 218 218 216 216 218 218 216 215 214 214 216 218 221 223 226 226 224 226 230 234 238 242 243 241 243 248 252 257 264 265 263 261 260 265 274 280 282 283 284 284 287 291 294 297 298 298 299 299 299 300 301 301 301 301 301 300 300 300 300 300 301 302 303 304 305 306 306 307
216 216 216 218 220 220 217 216 217 219 221 223 222 221 220 219 218 219 219 218 217 219 220 221 220 217 216 217 219 221 224 226 225 225 227 230 234 239 243 243 243 246 250 253 256 262 266 266 263 260 263 272 280 283 284 284 287 290 293 296 297 297 297 299 299 299 300 301 301 300 299 299 299 299 300 300 301 302 303 304 305 306 306 307 308
225 225 224 223 225 224 221 218 219 222 223 224 223 221 219 219 219 221 222 221 221 222 222 223 223 221 218 218 219 221 224 225 226 227 228 230 234 240 244 246 247 247 249 254 259 264 269 269 264 261 265 273 278 281 283 286 288 292 294 295 296 296 297 298 298 299 300 300 298 297 297 298 299 300 301 301 302 303 304 305 306 307 307 308 308
228 230 230 227 224 222 221 220 222 225 227 226 224 223 222 223 226 230 232 232 228 226 224 224 225 224 222 220 220 222 223 224 225 227 229 230 234 239 244 249 249 245 248 257 264 266 268 267 263 263 270 276 279 282 284 287 290 292 293 294 295 297 297 298 299 300 299 297 295 295 296 297 299 300 301 301 302 303 305 306 307 307 308 309 309
230 233 232 226 222 220 220 220 221 225 227 227 227 228 227 228 230 233 237 240 236 230 226 225 226 227 225 223 222 223 223 223 225 227 229 231 234 239 246 251 249 246 252 264 267 263 264 264 263 267 273 278 281 283 285 287 290 292 293 294 296 297 298 298 299 298 296 294 294 295 296 298 299 299 300 301 302 303 305 306 307 308 308 309 309
227 229 227 224 222 222 222 222 223 225 228 229 229 230 230 230 231 233 237 241 241 237 232 229 227 227 224 222 223 223 223 223 224 226 228 231 234 239 247 251 250 251 258 264 263 261 262 264 266 271 275 278 281 283 285 288 290 292 293 295 296 297 296 295 295 295 294 294 295 296 297 298 299 299 300 301 302 304 305 306 307 308 308 309 309
211 213 212 213 216 219 221 222 223 225 227 229 232 233 234 234 237 239 242 244 244 244 241 234 230 226 221 219 221 222 222 222 223 224 226 228 233 239 245 247 249 253 258 260 259 260 262 265 269 274 277 279 282 284 286 289 291 291 292 294 294 294 293 293 294 295 295 295 296 297 298 298 299 299 300 302 303 305 306 307 308 308 308 308 309
Height
5779 5784 5787 5789 5791 5794 5797 5801 5805 5809 5812 5815 5817 5820 5822 5824 5826 5828 5830 5832 5834 5835 5836 5838 5839 5839 5839 5839 5839 5839 5839 5840 5840 5840 5839 5839 5838 5837 5836 5835 5835 5835 5835 5834 5834 5833 5833 5832 5831 5831 5832 5832 5832 5832 5831 5831 5831 5831 5830 5829 5828 5828 5827 5827 5826 5826 5826 5826 5826 5826 5826 5826 5826 5825 5825 5824 5824 5823 5823 5822 5822 5821 5820 5820 5819
5774 5779 5782 5784 5787 5790 5793 5797 5801 5804 5808 5811 5814 5817 5819 5821 5823 5825 5827 5829 5831 5832 5833 5835 5836 5836 5836 5836 5836 5836 5836 5837 5837 5837 5837 5836 5836 5835 5834 5833 5833 5833 5833 5833 5832 5831 5831 5830 5830 5830 5830 5830 5830 5830 5830 5829 5829 5829 5828 5828 5826 5826 5825 5825 5825 5825 5824 5824 5824 5824 5824 5824 5824 5824 5823 5823 5823 5822 5821 5821 5820 5819 5819 5818 5817
5768 5772 5776 5780 5783 5787 5790 5794 5797 5800 5804 5807 5810 5813 5816 5818 5820 5822 5824 5826 5828 5829 5830 5832 5832 5833 5832 5832 5833 5833 5833 5833 5834 5834 5834 5834 5834 5833 5832 5831 5831 5831 5831 5831 5830 5830 5829 5828 5828 5828 5828 5828 5828 5828 5828 5827 5827 5826 5826 5826 5825 5824 5824 5823 5823 5823 5823 5822 5822 5822 5822 5822 5822 5822 5822 5821 5821 5820 5820 5819 5818 5818 5817 5816 5815
5763 5767 5772 5776 5779 5782 5786 5790 5794 5796 5799 5802 5806 5810 5813 5816 5818 5820 5821 5823 5824 5826 5827 5828 5829 5830 5830 5830 5831 5831 5830 5830 5831 5831 5832 5832 5832 5831 5830 5829 5829 5829 5829 5829 5828 5828 5827 5827 5827 5826 5826 5826 5826 5826 5826 5825 5825 5824 5824 5824 5824 5823 5822 5822 5822 5821 5821 5820 5820 5820 5820 5820 5820 5820 5819 5819 5819 5818 5818 5817 5816 5816 5815 5814 5813
5757 5762 5767 5771 5775 5779 5783 5787 5790 5793 5795 5799 5803 5807 5811 5813 5815 5817 5818 5819 5821 5822 5824 5825 5826 5827 5827 5827 5828 5828 5827 5827 5827 5828 5829 5829 5829 5829 5828 5827 5827 5826 5827 5827 5827 5826 5826 5826 5825 5825 5824 5824 5824 5824 5824 5823 5823 5822 5822 5822 5822 5822 5821 5820 5820 5819 5819 5818 5818 5818 5818 5818 5818 5818 5817 5817 5816 5816 5815 5815 5814 5813 5812 5812 5811
5751 5757 5762 5766 5771 5775 5779 5783 5786 5789 5792 5795 5800 5803 5807 5809 5811 5813 5815 5816 5817 5819 5821 5823 5824 5825 5825 5825 5825 5825 5824 5824 5824 5825 5826 5826 5827 5827 5826 5825 5825 5824 5824 5825 5825 5824 5824 5824 5823 5823 5822 5822 5822 5822 5822 5821 5821 5820 5820 5820 5820 5820 5819 5818 5818 5817 5817 5816 5816 5816 5816 5816 5816 5815 5815 5815 5814 5814 5813 5813 5812 5811 5810 5810 5809
5745 5751 5757 5761 5766 5770 5775 5779 5782 5786 5790 5793 5796 5799 5802 5805 5807 5809 5811 5813 5814 5816 5818 5820 5821 5821 5822 5821 5821 5821 5821 5821 5821 5822 5823 5824 5824 5824 5824 5823 5823 5822 5822 5822 5823 5822 5822 5822 5821 5821 5820 5820 5820 5819 5819 5819 5818 5818 5818 5818 5818 5817 5817 5816 5815 5815 5815 5814 5814 5814 5814 5814 5814 5813 5813 5813 5812 5812 5811 5811 5810 5809 5808 5807 5806
5740 5745 5751 5755 5760 5765 5771 5776 5780 5784 5788 5790 5793 5796 5799 5802 5804 5806 5808 5809 5811 5813 5815 5817 5818 5818 5818 5818 5818 5818 5818 5818 5818 5819 5820 5821 5821 5821 5821 5821 5820 5820 5820 5820 5820 5820 5819 5819 5819 5818 5818 5818 5817 5817 5817 5816 5816 5816 5816 5815 5815 5815 5814 5813 5813 5813 5813 5813 5812 5813 5813 5812 5812 5811 5811 5811 5810 5810 5809 5809 5808 5807 5806 5805 5804
5734 5740 5745 5750 5755 5760 5766 5772 5776 5780 5784 5786 5790 5793 5795 5798 5800 5803 5805 5806 5808 5810 5813 5814 5815 5814 5815 5815 5815 5815 5815 5815 5815 5816 5817 5818 5818 5818 5818 5818 5818 5818 5818 5817 5817 5817 5816 5816 5816 5816 5816 5816 5815 5815 5815 5814 5813 5813 5812 5812 5812 5812 5812 5811 5811 5811 5810 5810 5810 5810 5810 5810 5810 5809 5809 5809 5808 5808 5807 5807 5806 5805 5804 5802 5801
5728 5733 5739 5745 5750 5756 5761 5767 5772 5776 5779 5783 5786 5788 5790 5793 5796 5799 5801 5803 5805 5808 5811 5812 5811 5811 5812 5812 5812 5812 5812 5812 5813 5814 5814 5815 5815 5815 5815 5816 5816 5816 5816 5815 5815 5814 5814 5814 5813 5813 5813 5813 5813 5813 5813 5812 5811 5810 5810 5810 5809 5809 5809 5809 5809 5808 5808 5808 5808 5808 5808 5808 5808 5807 5807 5807 5806 5806 5805 5804 5803 5803 5801 5800 5799
5720 5727 5732 5739 5744 5750 5756 5761 5766 5770 5774 5777 5781 5783 5786 5789 5792 5795 5797 5800 5802 5806 5808 5808 5808 5808 5808 5809 5809 5809 5808 5809 5810 5811 5811 5812 5812 5812 5812 5813 5813 5814 5813 5813 5813 5812 5812 5812 5811 5811 5811 5811 5811 5810 5810 5810 5809 5808 5808 5808 5807 5806 5807 5807 5807 5806 5806 5806 5806 5806 5806 5806 5806 5805 5805 5805 5804 5804 5803 5802 5801 5800 5799 5798 5796
5713 5719 5725 5732 5738 5743 5748 5753 5759 5763 5767 5771 5775 5778 5781 5784 5788 5791 5794 5797 5799 5803 5804 5804 5805 5805 5805 5806 5806 5805 5805 5806 5807 5808 5808 5808 5809 5809 5810 5810 5811 5811 5811 5811 5810 5810 5810 5810 5809 5809 5808 5809 5808 5808 5807 5807 5807 5807 5806 5805 5805 5804 5805 5805 5805 5804 5804 5804 5804 5804 5804 5804 5804 5803 5803 5802 5802 5801 5800 5800 5799 5798 5797 5795 5794
5705 5712 5718 5725 5731 5737 5742 5747 5752 5756 5761 5766 5770 5774 5777 5780 5784 5787 5790 5793 5795 5798 5800 5801 5802 5802 5802 5802 5803 5802 5802 5803 5804 5804 5805 5805 5806 5806 5807 5808 5808 5808 5808 5808 5808 5808 5808 5807 5807 5806 5806 5806 5806 5805 5805 5804 5804 5804 5803 5803 5803 5803 5803 5803 5802 5802 5802 5802 5802 5802 5802 5802 5801 5801 5800 5800 5799 5799 5798 5797 5796 5795 5794 5793 5791
5698 5704 5711 5717 5725 5732 5737 5741 5746 5751 5757 5761 5765 5769 5773 5776 5780 5783 5786 5789 5792 5795 5796 5797 5798 5798 5799 5799 5799 5799 5800 5800 5801 5801 5802 5802 5803 5804 5805 5805 5806 5805 5805 5806 5806 5805 5805 5805 5804 5804 5804 5804 5804 5803 5802 5802 5801 5801 5801 5800 5801 5801 5801 5800 5800 5800 5800 5800 5800 5799 5800 5800 5799 5799 5798 5797 5797 5796 5795 5794 5793 5793 5792 5790 5789
5692 5697 5703 5711 5719 5726 5731 5736 5741 5747 5753 5757 5761 5765 5768 5772 5776 5779 5782 5785 5789 5791 5792 5793 5794 5795 5795 5796 5796 5796 5796 5797 5797 5798 5799 5800 5800 5801 5802 5803 5803 5803 5803 5803 5804 5803 5803 5802 5802 5802 5802 5802 5801 5801 5800 5799 5799 5799 5798 5798 5798 5798 5798 5798 5798 5798 5798 5798 5798 5797 5797 5797 5797 5796 5795 5795 5794 5794 5793 5792 5791 5790 5789 5788 5786
5684 5690 5697 5704 5712 5719 5725 5730 5736 5742 5748 5752 5756 5760 5764 5769 5772 5776 5779 5782 5785 5786 5788 5789 5790 5791 5792 5793 5793 5793 5793 5794 5794 5795 5796 5797 5798 5799 5800 5800 5800 5801 5801 5801 5801 5801 5800 5800 5799 5799 5799 5799 5799 5798 5798 5797 5796 5795 5795 5795 5796 5796 5796 5796 5796 5795 5795 5795 5795 5795 5795 5795 5794 5794 5793 5793 5792 5791 5790 5789 5788 5787 5786 5785 5783
5678 5685 5692 5699 5706 5713 5719 5725 5731 5737 5742 5747 5751 5756 5761 5765 5769 5772 5775 5779 5781 5782 5784 5785 5786 5787 5788 5789 5790 5790 5790 5791 5791 5792 5793 5794 5795 5796 5797 5798 5798 5798 5798 5798 5799 5798 5798 5797 5797 5797 5797 5797 5797 5796 5795 5795 5794 5793 5793 5793 5793 5793 5794 5794 5793 5793 5793 5793 5793 5793 5792 5792 5792 5791 5791 5790 5790 5789 5788 5787 5786 5784 5783 5781 5780
5673 5680 5687 5694 5702 5708 5714 5720 5726 5732 5737 5742 5747 5753 5758 5762 5765 5769 5772 5775 5776 5778 5779 5780 5782 5783 5785 5786 5786 5787 5787 5788 5788 5789 5790 5792 5793 5794 5795 5795 5795 5795 5796 5796 5796 5796 5795 5795 5795 5795 5795 5795 5794 5793 5793 5793 5793 5792 5792 5792 5791 5791 5791 5791 5791 5790 5790 5790 5790 5790 5790 5790 5789 5789 5789 5788 5787 5786 5785 5784 5783 5782 5780 5778 5777
5667 5675 5682 5690 5697 5703 5709 5715 5721 5727 5733 5738 5744 5749 5753 5757 5761 5765 5768 5770 5771 5772 5774 5776 5778 5780 5781 5782 5783 5783 5784 5785 5785 5786 5788 5789 5790 5791 5792 5792 5792 5793 5794 5794 5794 5794 5793 5792 5792 5792 5792 5792 5792 5791 5791 5791 5791 5790 5790 5789 5789 5789 5788 5788 5788 5788 5788 5788 5788 5787 5787 5787 5787 5787 5786 5785 5784 5783 5782 5781 5780 5779 5777 5775 5774
5662 5670 5678 5685 5692 5699 5705 5710 5717 5723 5728 5734 5739 5743 5748 5752 5756 5760 5763 5764 5766 5768 5771 5773 5775 5776 5777 5778 5779 5780 5781 5782 5783 5784 5785 5786 5787 5788 5789 5789 5790 5791 5791 5791 5791 5791 5791 5790 5790 5790 5790 5790 5789 5789 5788 5788 5788 5787 5787 5787 5786 5786 5786 5785 5785 5785 5785 5785 5785 5785 5785 5785 5785 5784 5783 5782 5781 5780 5779 5778 5777 5775 5774 5772 5770
5657 5665 5673 5681 5688 5695 5701 5707 5713 5719 5724 5729 5734 5739 5744 5748 5752 5755 5757 5759 5762 5765 5767 5769 5771 5772 5773 5774 5776 5777 5778 5779 5780 5781 5782 5784 5784 5785 5786 5787 5788 5789 5789 5789 5789 5789 5788 5788 5787 5787 5787 5787 5787 5786 5785 5785 5785 5785 5784 5784 5783 5783 5783 5782 5782 5782 5782 5782 5782 5782 5782 5782 5782 5781 5780 5779 5778 5777 5776 5775 5773 5772 5770 5768 5766
5653 5661 5669 5677 5685 5692 5698 5703 5709 5714 5718 5724 5729 5735 5739 5743 5747 5750 5752 5755 5758 5761 5763 5765 5766 5768 5769 5771 5772 5773 5775 5776 5777 5778 5780 5781 5781 5782 5783 5784 5785 5786 5786 5786 5786 5786 5786 5785 5785 5785 5785 5785 5784 5783 5783 5783 5782 5782 5781 5781 5780 5780 5780 5780 5779 5779 5779 5779 5779 5779 5780 5780 5779 5778 5777 5776 5775 5774 5773 5771 5770 5768 5766 5764 5762
5650 5658 5666 5674 5681 5688 5695 5700 5705 5709 5714 5719 5726 5731 5735 5739 5743 5745 5748 5751 5755 5757 5759 5761 5763 5764 5766 5767 5768 5770 5772 5773 5774 5776 5777 5778 5779 5779 5780 5781 5782 5783 5783 5783 5784 5783 5783 5783 5783 5782 5782 5782 5782 5781 5780 5780 5779 5779 5778 5778 5777 5777 5777 5777 5776 5777 5777 5777 5777 5777 5777 5777 5776 5776 5775 5773 5772 5771 5770 5768 5766 5765 5763 5761 5759
5648 5655 5662 5670 5678 5684 5691 5696 5701 5706 5710 5717 5723 5727 5731 5735 5738 5741 5744 5747 5751 5753 5754 5757 5759 5760 5762 5763 5765 5767 5769 5770 5772 5773 5774 5775 5776 5776 5778 5778 5779 5780 5780 5781 5781 5781 5780 5780 5780 5780 5779 5779 5779 5779 5778 5777 5777 5776 5775 5775 5774 5774 5774 5774 5774 5774 5774 5775 5775 5775 5775 5774 5773 5773 5772 5771 5769 5768 5766 5765 5763 5761 5759 5757 5755
5644 5651 5658 5666 5674 5681 5687 5693 5698 5703 5708 5714 5719 5723 5726 5730 5733 5737 5740 5743 5746 5748 5750 5753 5755 5756 5758 5760 5762 5764 5766 5767 5769 5770 5771 5772 5772 5774 5775 5776 5777 5777 5778 5778 5778 5778 5778 5778 5777 5777 5777 5776 5776 5776 5775 5775 5774 5773 5773 5772 5772 5772 5772 5772 5772 5772 5772 5773 5773 5773 5772 5771 5770 5770 5769 5767 5766 5765 5763 5761 5759 5757 5755 5753 5751
5641 5648 5655 5663 5671 5678 5684 5689 5694 5700 5705 5710 5715 5718 5722 5726 5729 5732 5735 5739 5742 5744 5747 5749 5751 5752 5754 5756 5759 5761 5763 5764 5765 5767 5768 5768 5769 5771 5772 5773 5774 5774 5775 5775 5775 5775 5775 5775 5775 5775 5774 5774 5773 5773 5772 5772 5771 5770 5770 5770 5770 5770 5770 5770 5770 5770 5770 5770 5770 5770 5769 5768 5767 5767 5766 5764 5763 5761 5759 5757 5755 5753 5751 5749 5747
5638 5646 5653 5660 5667 5673 5679 5685 5690 5696 5701 5706 5711 5714 5718 5721 5725 5728 5731 5735 5738 5740 5743 5745 5747 5749 5751 5753 5756 5758 5760 5761 5762 5764 5765 5765 5766 5768 5769 5770 5771 5771 5772 5772 5772 5772 5772 5772 5772 5772 5772 5771 5771 5770 5769 5769 5768 5768 5768 5768 5768 5768 5768 5768 5768 5768 5768 5768 5767 5767 5766 5765 5764 5763 5762 5761 5759 5757 5755 5753 5750 5748 5747 5745 5743
5636 5644 5651 5657 5664 5670 5676 5681 5687 5692 5697 5701 5706 5709 5713 5716 5719 5723 5727 5731 5733 5736 5739 5741 5743 5745 5747 5750 5752 5755 5756 5757 5759 5760 5761 5762 5764 5765 5767 5768 5768 5769 5769 5769 5770 5770 5770 5770 5770 5770 5769 5769 5768 5768 5767 5767 5766 5766 5766 5766 5767 5767 5766 5766 5766 5766 5765 5765 5765 5764 5763 5762 5761 5760 5759 5757 5755 5753 5751 5749 5746 5744 5743 5741 5739
5634 5642 5648 5654 5661 5667 5673 5678 5683 5688 5692 5696 5700 5704 5707 5710 5714 5718 5723 5726 5729 5732 5735 5737 5739 5742 5744 5746 5749 5751 5753 5754 5756 5757 5758 5759 5761 5762 5764 5765 5765 5766 5766 5767 5767 5767 5767 5767 5767 5767 5767 5766 5766 5765 5765 5765 5764 5764 5764 5764 5764 5764 5764 5764 5763 5763 5763 5762 5762 5761 5760 5759 5757 5756 5755 5753 5751 5749 5747 5745 5743 5741 5739 5737 5735
5632 5639 5645 5651 5657 5663 5669 5675 5680 5684 5689 5693 5696 5700 5703 5706 5710 5714 5718 5722 5725 5728 5731 5733 5736 5738 5740 5743 5745 5748 5749 5751 5752 5754 5755 5756 5758 5759 5761 5762 5762 5763 5763 5764 5764 5764 5764 5764 5764 5764 5764 5763 5763 5763 5762 5762 5762 5762 5762 5762 5762 5762 5762 5761 5761 5761 5760 5759 5758 5757 5756 5755 5754 5752 5751 5749 5747 5745 5744 5742 5740 5738 5735 5733 5730
5630 5636 5642 5648 5653 5659 5665 5671 5676 5681 5686 5689 5693 5696 5699 5702 5707 5711 5715 5718 5721 5724 5727 5730 5732 5734 5736 5739 5742 5744 5746 5747 5749 5750 5751 5753 5755 5756 5758 5759 5760 5760 5761 5761 5761 5761 5761 5761 5761 5761 5761 5760 5760 5760 5760 5760 5759 5759 5759 5759 5759 5759 5759 5759 5758 5757 5757 5756 5755 5753 5752 5751 5750 5748 5747 5745 5743 5742 5740 5739 5737 5734 5732 5729 5727
5628 5634 5640 5645 5651 5657 5663 5668 5673 5678 5682 5686 5689 5692 5694 5698 5703 5707 5711 5714 5717 5720 5723 5726 5728 5730 5732 5735 5738 5741 5742 5744 5745 5747 5748 5749 5751 5753 5755 5756 5757 5757 5758 5758 5758 5758 5759 5759 5759 5758 5758 5757 5757 5757 5757 5757 5757 5756 5756 5757 5757 5756 5756 5755 5754 5754 5753 5752 5751 5750 5748 5747 5746 5744 5742 5740 5739 5738 5736 5734 5732 5730 5727 5725 5722
5626 5631 5637 5643 5649 5655 5661 5666 5671 5675 5679 5683 5685 5687 5691 5695 5700 5704 5707 5710 5712 5716 5719 5721 5724 5726 5728 5731 5735 5737 5739 5741 5742 5743 5744 5746 5748 5750 5751 5753 5754 5754 5755 5755 5755 5756 5756 5756 5756 5755 5755 5754 5754 5754 5754 5754 5754 5754 5754 5754 5754 5753 5752 5752 5751 5750 5750 5749 5748 5746 5744 5743 5742 5740 5738 5737 5735 5734 5732 5730 5728 5725 5722 5720 5717
5625 5630 5635 5641 5647 5652 5658 5663 5667 5672 5675 5678 5680 5683 5687 5691 5695 5698 5702 5705 5708 5711 5714 5717 5720 5722 5725 5728 5731 5734 5736 5737 5738 5739 5741 5743 5745 5747 5748 5749 5750 5751 5752 5752 5752 5752 5753 5753 5752 5752 5752 5752 5752 5751 5751 5751 5751 5751 5751 5751 5750 5750 5749 5748 5747 5747 5746 5745 5744 5742 5740 5739 5737 5736 5734 5733 5731 5729 5727 5725 5723 5721 5718 5715 5713
5625 5631 5635 5640 5645 5650 5655 5660 5664 5667 5670 5672 5675 5678 5681 5685 5689 5692 5696 5700 5704 5707 5710 5713 5716 5719 5721 5724 5728 5730 5732 5734 5735 5736 5737 5740 5742 5743 5745 5746 5747 5748 5748 5748 5749 5749 5750 5750 5749 5750 5749 5749 5749 5749 5748 5748 5748 5748 5748 5747 5747 5746 5745 5745 5744 5743 5742 5741 5740 5738 5736 5734 5733 5731 5730 5729 5727 5725 5723 5721 5718 5716 5713 5711 5708
5625 5630 5634 5639 5644 5649 5653 5657 5661 5664 5667 5669 5670 5673 5676 5681 5685 5689 5693 5697 5700 5703 5706 5709 5712 5715 5718 5721 5725 5727 5728 5730 5731 5733 5735 5737 5738 5740 5741 5742 5743 5744 5745 5745 5746 5746 5746 5746 5747 5747 5747 5746 5746 5745 5745 5745 5744 5744 5744 5744 5743 5743 5742 5741 5740 5739 5738 5737 5736 5734 5732 5730 5728 5727 5726 5725 5722 5720 5718 5716 5714 5712 5709 5706 5704
5623 5628 5633 5638 5642 5647 5651 5654 5658 5661 5663 5665 5667 5670 5673 5677 5681 5685 5690 5693 5696 5699 5702 5705 5708 5712 5715 5718 5721 5723 5725 5726 5728 5729 5732 5733 5735 5736 5737 5738 5740 5741 5741 5742 5742 5743 5743 5743 5744 5744 5743 5743 5743 5742 5742 5741 5741 5740 5740 5740 5740 5739 5738 5738 5737 5736 5735 5733 5731 5729 5728 5726 5724 5723 5722 5720 5718 5716 5714 5712 5710 5707 5704 5702 5700
5622 5627 5632 5636 5641 5645 5648 5651 5654 5657 5659 5662 5665 5668 5671 5674 5678 5682 5686 5689 5692 5695 5698 5701 5705 5708 5711 5714 5717 5718 5721 5723 5724 5726 5728 5729 5731 5732 5733 5735 5736 5737 5738 5738 5739 5739 5740 5740 5741 5740 5740 5740 5739 5739 5739 5738 5737 5737 5737 5736 5736 5735 5734 5734 5733 5732 5731 5728 5727 5725 5724 5722 5720 5719 5718 5716 5714 5712 5709 5707 5705 5702 5700 5697 5696
5621 5626 5631 5636 5640 5643 5646 5648 5651 5653 5656 5660 5663 5665 5668 5671 5675 5678 5681 5685 5688 5692 5695 5699 5702 5705 5707 5710 5712 5714 5716 5718 5720 5722 5724 5725 5726 5728 5730 5731 5733 5734 5735 5735 5736 5737 5737 5737 5737 5737 5737 5736 5736 5736 5735 5735 5734 5733 5733 5733 5732 5731 5730 5730 5729 5728 5726 5724 5722 5721 5720 5718 5717 5715 5713 5711 5709 5707 5704 5702 5700 5697 5695 5693 5691
5621 5626 5631 5635 5639 5642 5644 5646 5649 5652 5655 5658 5660 5663 5666 5670 5673 5675 5677 5681 5684 5688 5691 5694 5697 5700 5702 5705 5707 5709 5712 5714 5716 5717 5719 5721 5722 5724 5726 5728 5729 5731 5732 5732 5733 5734 5734 5734 5734 5734 5733 5733 5733 5733 5732 5731 5730 5730 5730 5729 5728 5727 5727 5726 5726 5724 5723 5721 5719 5717 5716 5714 5713 5711 5709 5706 5704 5702 5700 5698 5695 5693 5691 5689 5687
5620 5624 5629 5633 5636 5640 5642 5645 5648 5651 5654 5656 5659 5662 5665 5667 5669 5671 5674 5678 5680 5683 5686 5689 5692 5695 5698 5700 5703 5705 5707 5709 5711 5713 5715 5717 5719 5721 5723 5725 5726 5727 5729 5730 5730 5730 5730 5730 5730 5730 5730 5730 5730 5730 5729 5728 5727 5726 5726 5726 5725 5724 5724 5723 5722 5721 5719 5717 5715 5714 5712 5710 5709 5707 5705 5702 5700 5698 5696 5694 5691 5689 5687 5686 5683
5618 5622 5626 5630 5633 5637 5640 5643 5646 5649 5652 5654 5657 5660 5662 5664 5666 5669 5672 5674 5674 5676 5679 5683 5686 5689 5692 5695 5698 5700 5702 5704 5706 5708 5711 5713 5716 5718 5720 5721 5723 5725 5726 5726 5725 5726 5726 5727 5727 5727 5727 5727 5727 5727 5726 5725 5723 5722 5722 5722 5722 5721 5720 5719 5718 5717 5715 5713 5711 5709 5708 5706 5704 5702 5700 5698 5696 5694 5692 5689 5687 5685 5684 5681 5679
5616 5619 5623 5627 5630 5633 5637 5640 5643 5646 5649 5651 5653 5656 5658 5659 5662 5665 5666 5667 5668 5670 5674 5677 5681 5684 5687 5690 5693 5695 5697 5699 5702 5705 5708 5711 5712 5714 5716 5718 5720 5721 5722 5722 5723 5724 5724 5725 5725 5725 5724 5724 5724 5723 5723 5722 5720 5719 5719 5719 5719 5718 5717 5716 5715 5713 5711 5709 5707 5705 5703 5701 5699 5697 5695 5694 5692 5690 5688 5685 5683 5681 5679 5677 5675
5615 5617 5620 5623 5627 5630 5633 5637 5640 5642 5645 5647 5649 5650 5651 5653 5657 5659 5661 5663 5665 5667 5669 5671 5675 5678 5681 5685 5687 5690 5692 5695 5699 5702 5705 5707 5708 5710 5713 5715 5716 5718 5718 5719 5721 5721 5721 5720 5721 5721 5721 5721 5720 5719 5719 5718 5717 5716 5716 5715 5715 5714 5713 5712 5711 5708 5706 5704 5702 5700 5698 5696 5694 5693 5691 5689 5687 5685 5683 5681 5679 5677 5675 5673 5671
5613 5615 5618 5620 5623 5627 5630 5634 5637 5639 5641 5643 5644 5645 5647 5651 5654 5656 5657 5660 5662 5664 5666 5668 5669 5672 5676 5680 5683 5686 5689 5693 5696 5699 5701 5702 5705 5707 5710 5712 5713 5713 5714 5716 5717 5717 5716 5716 5716 5716 5716 5716 5716 5715 5715 5714 5713 5713 5712 5712 5711 5710 5709 5707 5706 5704 5701 5699 5697 5695 5693 5691 5689 5688 5686 5685 5683 5681 5679 5677 5675 5673 5671 5668 5667
5609 5612 5615 5617 5620 5624 5627 5630 5632 5634 5636 5638 5639 5642 5646 5649 5651 5652 5654 5656 5658 5661 5664 5666 5666 5668 5672 5676 5679 5683 5686 5689 5692 5694 5696 5699 5701 5704 5707 5709 5709 5710 5711 5712 5713 5712 5712 5711 5710 5711 5711 5712 5712 5712 5711 5710 5709 5709 5708 5708 5707 5706 5705 5703 5701 5699 5697 5695 5692 5690 5688 5686 5685 5683 5682 5680 5678 5677 5675 5673 5671 5668 5666 5664 5662
5605 5609 5612 5615 5618 5621 5623 5625 5627 5629 5631 5633 5635 5639 5643 5647 5648 5649 5651 5654 5657 5660 5662 5664 5665 5666 5669 5673 5676 5679 5682 5685 5688 5690 5693 5696 5699 5701 5703 5705 5706 5706 5708 5708 5709 5709 5708 5708 5707 5707 5708 5708 5708 5708 5707 5706 5706 5705 5704 5703 5703 5702 5700 5698 5696 5694 5692 5690 5688 5686 5684 5682 5680 5679 5677 5676 5674 5672 5670 5668 5666 5664 5662 5660 5658
5602 5606 5610 5613 5616 5618 5620 5621 5623 5625 5627 5630 5634 5637 5641 5646 5649 5649 5650 5653 5655 5657 5659 5662 5664 5666 5668 5671 5674 5676 5679 5681 5684 5686 5690 5694 5696 5698 5699 5700 5701 5703 5704 5704 5705 5705 5705 5705 5705 5705 5705 5705 5705 5704 5703 5702 5702 5701 5700 5699 5698 5697 5695 5693 5692 5690 5688 5686 5684 5682 5680 5678 5677 5675 5673 5671 5670 5668 5666 5664 5662 5660 5658 5656 5654
5600 5604 5607 5610 5613 5616 5617 5618 5619 5621 5624 5629 5634 5637 5640 5644 5646 5647 5648 5650 5652 5654 5656 5658 5660 5662 5665 5668 5671 5673 5676 5678 5680 5683 5687 5690 5692 5694 5695 5695 5697 5698 5699 5700 5700 5701 5701 5701 5702 5702 5702 5701 5701 5700 5699 5699 5698 5697 5696 5695 5694 5692 5690 5689 5687 5685 5683 5681 5679 5678 5676 5674 5673 5671 5669 5667 5665 5664 5662 5660 5658 5656 5654 5652 5650
5600 5602 5604 5608 5611 5613 5615 5616 5618 5621 5624 5628 5632 5634 5637 5640 5641 5642 5643 5646 5648 5651 5652 5653 5655 5657 5660 5664 5667 5670 5673 5675 5678 5681 5684 5687 5688 5689 5690 5691 5693 5694 5695 5695 5696 5697 5697 5698 5698 5698 5698 5697 5697 5696 5695 5695 5694 5693 5692 5690 5689 5687 5686 5684 5683 5681 5679 5677 5675 5673 5672 5670 5668 5666 5664 5663 5661 5660 5658 5656 5654 5652 5651 5649 5647
5598 5600 5602 5605 5608 5610 5612 5614 5617 5620 5623 5626 5628 5631 5634 5637 5639 5639 5641 5644 5646 5648 5649 5650 5652 5653 5656 5659 5662 5666 5669 5672 5675 5678 5681 5683 5685 5686 5687 5688 5689 5691 5691 5692 5692 5693 5693 5694 5694 5694 5694 5693 5692 5692 5691 5691 5690 5689 5687 5686 5685 5683 5681 5680 5678 5676 5674 5672 5670 5669 5667 5666 5664 5662 5660 5659 5657 5655 5654 5652 5650 5649 5647 5645 5643